Hourly Weather Roundup
Issued by NWS Central Illinois

Home | Current Version | Previous Version | Text Only | Print | Product List | Glossary On
Versions: 1 2 3 4 5 6 7 8 9 10 11 12 13 14 15 16 17 18 19 20 21 22 23 24 25 26 27 28 29 30 31 32 33 34 35 36 37 38 39 40 41 42 43 44 45 46 47 48 49 50
000
NZUS43 KILX 302010
HWRILX

AREA WEATHER ROUNDUP
NATIONAL WEATHER SERVICE, LINCOLN IL
300 PM CDT SAT APR 30 2016


CITY           SKY/WX    TMP DP  RH WIND       PRES   REMARKS
BLOOMINGTON    LGT RAIN  55  55 100 SE14      29.80F FOG
CHAMPAIGN      RAIN      57  57 100 SE16      29.81F FOG
DANVILLE       LGT RAIN  55  54  97 E12       29.80F
DECATUR        CLOUDY    61  59  93 SE14      29.79F
EFFINGHAM      CLOUDY    64  64  99 SE6       29.81S
FLORA          CLOUDY    69  64  82 S13       29.79S
GALESBURG      RAIN      53  52  97 E12G18    29.77S
JACKSONVILLE   CLOUDY    63  61  91 SE8       29.74S
LACON          LGT RAIN  51  49  95 E18G30    29.80F
LAWRENCEVILLE  CLOUDY    65  63  93 SE17      29.82F
LITCHFIELD     CLOUDY    64  60  87 S13G18    29.76R
$$


CITY           SKY/WX    TMP DP  RH WIND       PRES   REMARKS
LINCOLN        CLOUDY    60  59  98 SE9       29.76F
MACOMB         CLOUDY    57  56  99 SE10      29.77S
MATTOON        CLOUDY    61  58  90 S13       29.79F
MT CARMEL AP   NOT AVBL
OLNEY-NOBLE AP CLOUDY    68  64  88 SE16G25   29.78F
PARIS          CLOUDY    58  58  97 SE10      29.82F
PEORIA         LGT RAIN  55  53  93 E13       29.78F FOG
PONTIAC        LGT RAIN  52  52  99 E18       29.84F
RANTOUL        DRIZZLE   57  56  96 E8        29.82F
ROBINSON       CLOUDY    63  61  94 SE14G20   29.82F
SPRINGFIELD    CLOUDY    64  63  96 SE12      29.75F
TAYLORVILLE    CLOUDY    64  61  88 SE14      29.76F
$$

...REGIONAL REPORTS...


CITY           SKY/WX    TMP DP  RH WIND       PRES   REMARKS
CHICAGO O`HARE LGT RAIN  45  42  89 NE15      29.94F FOG
KANKAKEE       RAIN      49  48  97 E15       29.88F
MOLINE         LGT RAIN  50  46  86 E17G31    29.80F
MOUNT STERLING CLOUDY    58  58  97 SE8       29.73S
MOUNT VERNON   CLOUDY    70  61  73 SW15      29.80R
PITTSFIELD     CLOUDY    64  63  94 SE7       29.73S
QUINCY         CLOUDY    65  61  87 S9        29.71S
ROCKFORD       LGT RAIN  46  43  89 NE20G28   29.95S FOG
$$


CITY           SKY/WX    TMP DP  RH WIND       PRES   REMARKS
BURLINGTON     LGT RAIN  56  56 100 E9        29.74R FOG
CEDAR RAPIDS   LGT RAIN  48  46  93 E18       29.82R FOG
DES MOINES     LGT RAIN  50  46  86 E15G22    29.77S FOG
KIRKSVILLE     CLOUDY    65  60  84 NE6       29.71S
OTTUMWA        CLOUDY    52  51  97 NE13      29.75S FOG
ST LOUIS       CLOUDY    71  62  73 VRB7      29.75R
$$


CITY           SKY/WX    TMP DP  RH WIND       PRES   REMARKS
TERRE HAUTE    CLOUDY    60  57  89 SE14      29.83F
EVANSVILLE     LGT RAIN  66  62  87 SE7       29.84F FOG
INDIANAPOLIS   CLOUDY    56  53  90 E12       29.88F
LAFAYETTE      LGT RAIN  52  51  97 E14       29.86F FOG
MADISON        LGT RAIN  46  40  79 E17G25    30.00F
MILWAUKEE      LGT RAIN  44  39  82 NE15      30.02F
$$






USA.gov is the U.S. government's official web portal to all federal, state and local government web resources and services.